Zurück zum Katalog

PICOSAT 4

AktivWissenschaftLEO
NORAD 26092·PAYLOAD·🇺🇸 United States

Gestartet Jan 27, 2000 von Vandenberg Space Force Base

Loading…

Nächste Überflüge (nächste 24 Stunden)

TLE

AktuellSource: Space-Track

Epoche: Sep 13, 2026, 14:36 UTC

1 26092U 00004K   26256.60860178  .00000435  00000-0  13082-3 0  9999
2 26092 100.2018 301.4824 0030773 248.4954 111.2952 14.48933907399146

Verfolge PICOSAT 4 in Echtzeit mit AllMySat

Download on the App Store